This demonstration page uses our WeatherBlox Daily Observations layout. Learn more.

Left ArrowRight Arrow

38.80484, -77.04692

Hourly Observations for August 12, 2021

Temp ( °F °C ) Dew Point ( °F °C ) Humidity (%) Winds ( mph kmh ) Pressure ( in mb ) Visibility ( mi km ) Precip ( " mm )
12:52 am 00:52 Mostly Cloudy 77 25 72 22.2 85 85 SSE 9 15 30.03 1017 10 16 N/A
1:52 am 01:52 Mostly Cloudy 76 24.4 71 21.7 85 85 S 9 15 30.03 1017 10 16 N/A
2:52 am 02:52 Mostly Cloudy 76 24.4 70 21.1 82 82 SW 7 11 30.04 1017 10 16 N/A
3:52 am 03:52 Mostly Cloudy 76 24.4 71 21.7 85 85 W 7 11 30.04 1017 10 16 N/A
4:52 am 04:52 Mostly Cloudy 75 23.9 70 21.1 84 84 SW 3 6 30.04 1017 10 16 N/A
5:52 am 05:52 Partly Cloudy 74 23.3 69 20.6 85 85 SSW 6 9 30.04 1017 10 16 N/A
6:52 am 06:52 Mostly Sunny 75 23.9 70 21.1 84 84 SSW 5 7 30.06 1018 10 16 N/A
7:52 am 07:52 Mostly Sunny 77 25 70 21.1 79 79 SSW 5 7 30.07 1018 10 16 N/A
8:52 am 08:52 Mostly Sunny 80 26.7 71 21.7 74 74 SW 3 6 30.08 1019 10 16 N/A
9:52 am 09:52 Mostly Sunny 80 26.7 73 22.8 79 79 S 9 15 30.08 1019 10 16 N/A
10:52 am 10:52 Mostly Sunny 83 28.3 74 23.3 74 74 S 8 13 30.08 1019 10 16 N/A
11:52 am 11:52 Mostly Sunny 88 31.1 75 23.9 66 66 SSE 6 9 30.08 1019 10 16 N/A
12:52 pm 12:52 Mostly Sunny 92 33.3 75 23.9 58 58 S 9 15 30.07 1018 10 16 N/A
1:52 pm 13:52 Partly Cloudy 92 33.3 74 23.3 56 56 S 13 20 30.05 1018 10 16 N/A
2:52 pm 14:52 Partly Cloudy 94 34.4 74 23.3 52 52 S 12 19 30.02 1017 10 16 N/A
3:52 pm 15:52 Mostly Sunny 95 35 73 22.8 49 49 S 12 19 30.01 1016 10 16 N/A
4:52 pm 16:52 Mostly Sunny 96 35.6 71 21.7 44 44 SSW 9 15 30.00 1016 10 16 N/A
5:52 pm 17:52 Mostly Sunny 92 33.3 74 23.3 56 56 S 16 26 29.97 1015 10 16 N/A
6:52 pm 18:52 Mostly Sunny 91 32.8 75 23.9 59 59 S 14 22 29.97 1015 10 16 N/A
7:52 pm 19:52 Mostly Sunny 90 32.2 74 23.3 59 59 S 13 20 29.98 1015 10 16 N/A
8:52 pm 20:52 Mostly Clear 89 31.7 73 22.8 59 59 S 9 15 29.99 1016 10 16 N/A
9:52 pm 21:52 Clear 86 30 78 25.6 77 77 S 8 13 30.01 1016 10 16 N/A
10:52 pm 22:52 Mostly Clear 86 30 77 25 75 75 S 10 17 30.01 1016 10 16 N/A
11:52 pm 23:52 Mostly Clear 85 29.4 77 25 77 77 S 10 17 30.03 1017 10 16 N/A

Powered by AerisWeather